Погода в Пайтуге

Узбекистан     40°53′46″N   72°14′54″E
темп.,
°C
ветер,
м/с
пор.,
м/с
влажн.,
%
обл.,
%
осадки,
мм/ч
давл.,
гПа
погр.,
м
22 июня, вт
вт2223:00+23в33221 0.0 101130
02:00+21в610260 0.0 1011140
05:00+20в510280 0.0 1011168
08:00+28юв55160 0.0 10111015
11:00+32ююз33130 0.0 10091868
14:00+35зюз55100 0.0 10072876
17:00+34зюз56124 0.0 10062743
20:00+28в221922 0.0 100623
23 июня, ср
ср2323:00+23св34280 0.0 100867
02:00+21в34320 0.0 100957
05:00+20в463314 0.0 1010100
08:00+27ююв55200 0.0 1011974
11:00+32ююз33150 0.0 10091554
14:00+36юз55100 0.0 10072833
17:00+35зюз55110 0.0 10062916
20:00+28зюз47160 0.0 1008103
24 июня, чт
чт2423:00+24в33200 0.0 100920
02:00+21в46240 0.0 100984
05:00+20всв34260 0.0 100965
08:00+29юв33160 0.0 1008558
11:00+34ююз55120 0.0 10061653
14:00+37зюз5790 0.0 10042463
17:00+37з6780 0.0 10023106
20:00+30юз7141321 0.0 1004449
25 июня, пт
пт2523:00+27юз162098 0.0 1005236
02:00+23вюв58240 0.0 1006111
05:00+22в58270 0.0 1006136
08:00+29ююв34200 0.0 1007796
11:00+34зюз46140 0.0 10052609
14:00+36з56120 0.0 10033454
17:00+37зсз35130 0.0 10013595
20:00+31юз815191 0.0 1002516
26 июня, сб
сб2623:00+25вюв12280 0.0 100421
02:00+22в47320 0.0 100597
05:00+21в46340 0.0 100681
08:00+29вюв23200 0.0 1007882
11:00+34ю56155 0.0 10051919
14:00+37зюз55101 0.0 10032637
17:00+37зюз54100 0.0 10012849
20:00+29з351586 0.0 100359